Pau, France

5:12 PM CEST on September 21, 2017 (GMT +0200)
Pau / Pyrenees

Weather History for LFBP - April, 2013

Change the Weather History Date:

Tuesday, April 16, 2013

  Actual Average Record
Temperature  
Mean Temperature 62 °F -  
Max Temperature 73 °F 64 °F 77 °F (2014)
Min Temperature 50 °F 47 °F 33 °F (1999)
Degree Days  
Heating Degree Days 4    
Growing Degree Days 12 (Base 50)    
Moisture  
Dew Point 53 °F    
Average Humidity 76    
Maximum Humidity 100    
Minimum Humidity 57    
Precipitation  
Precipitation 0.00 in - - ()
Sea Level Pressure  
Sea Level Pressure 30.19 in    
Wind  
Wind Speed 3 mph ()    
Max Wind Speed 9 mph    
Max Gust Speed -    
Visibility 6.2 miles    
Events      
Averages and records for this station are not official NWS values.
T = Trace of Precipitation, MM = Missing Value Source: Averaged Metar Reports

Daily Weather History Graph

Daily Weather History Graph

Search for Another Location

Airport or City:

Trip Planner

Search our weather history database for the weather conditions in past years. The results will help you decide how hot, cold, wet, or windy it might be!

Date:

Astronomy

Apr. 16, 2013 Rise Set
Actual Time 7:17 AM CEST 8:45 PM CEST
Civil Twilight 6:47 AM CEST 9:15 PM CEST
Nautical Twilight 6:11 AM CEST 9:51 PM CEST
Astronomical Twilight 5:33 AM CEST 10:30 PM CEST
Moon 11:18 AM CEST (4/16) 1:37 AM CEST (4/16)
Length of Visible Light 14h 27m
Length of Day
13h 28m
Waxing Crescent, 31% of the Moon is Illuminated
Apr 16
Waxing Crescent
Apr 18
First Quarter
Apr 25
Full
May 2
Last Quarter
May 10
New

Hourly Weather History & Observations

Time (CEST) Temp. Dew Point Humidity Pressure Visibility Wind Dir Wind Speed Gust Speed Precip Events Conditions
12:00 AM 57.2 °F 51.8 °F 82% 30.18 in 6.2 mi WNW 9.2 mph - N/A   Overcast
12:30 AM 55.4 °F 51.8 °F 88% 30.18 in 6.2 mi West 6.9 mph - N/A   Mostly Cloudy
1:00 AM 55.4 °F 50.0 °F 82% 30.21 in 6.2 mi West 5.8 mph - N/A   Scattered Clouds
1:30 AM 55.4 °F 50.0 °F 82% 30.21 in 6.2 mi West 8.1 mph - N/A   Scattered Clouds
2:00 AM 53.6 °F 48.2 °F 82% 30.21 in 6.2 mi West 4.6 mph - N/A   Mostly Cloudy
2:30 AM 53.6 °F 48.2 °F 82% 30.21 in 6.2 mi WSW 3.5 mph - N/A   Mostly Cloudy
3:00 AM 53.6 °F 48.2 °F 82% 30.21 in 6.2 mi Variable 2.3 mph - N/A   Scattered Clouds
3:30 AM 53.6 °F 48.2 °F 82% 30.21 in 6.2 mi Calm Calm - N/A   Mostly Cloudy
4:00 AM 53.6 °F 48.2 °F 82% 30.21 in 6.2 mi Variable 1.2 mph - N/A   Mostly Cloudy
4:30 AM 53.6 °F 48.2 °F 82% 30.21 in 6.2 mi Calm Calm - N/A   Mostly Cloudy
5:00 AM 53.6 °F 48.2 °F 82% 30.18 in 6.2 mi Calm Calm - N/A   Scattered Clouds
5:30 AM 51.8 °F 46.4 °F 82% 30.18 in 6.2 mi Calm Calm - N/A   Unknown
6:00 AM 50.0 °F 48.2 °F 94% 30.18 in 6.2 mi Calm Calm - N/A   Scattered Clouds
6:30 AM 50.0 °F 48.2 °F 94% 30.21 in 6.2 mi NE 1.2 mph - N/A   Scattered Clouds
7:00 AM 50.0 °F 50.0 °F 100% 30.21 in 6.2 mi Calm Calm - N/A   Scattered Clouds
7:30 AM 51.8 °F 48.2 °F 88% 30.21 in 6.2 mi Calm Calm - N/A   Scattered Clouds
8:00 AM 51.8 °F 50.0 °F 94% 30.21 in 6.2 mi South 3.5 mph - N/A   Scattered Clouds
8:30 AM 51.8 °F 50.0 °F 94% 30.21 in 6.2 mi WSW 2.3 mph - N/A   Scattered Clouds
9:00 AM 53.6 °F 50.0 °F 88% 30.24 in 6.2 mi WNW 3.5 mph - N/A   Scattered Clouds
9:30 AM 53.6 °F 51.8 °F 94% 30.24 in 6.2 mi Variable 2.3 mph - N/A   Mostly Cloudy
10:00 AM 55.4 °F 51.8 °F 88% 30.24 in 6.2 mi Variable 1.2 mph - N/A   Mostly Cloudy
10:30 AM 55.4 °F 51.8 °F 88% 30.24 in 6.2 mi Variable 2.3 mph - N/A   Mostly Cloudy
11:00 AM 59.0 °F 51.8 °F 77% 30.24 in - Variable 2.3 mph - N/A   Clear
11:30 AM 60.8 °F 50.0 °F 68% 30.21 in - Variable 2.3 mph - N/A   Clear
12:00 PM 62.6 °F 51.8 °F 68% 30.21 in - Variable 2.3 mph - N/A   Clear
12:30 PM 64.4 °F 51.8 °F 64% 30.21 in - Variable 2.3 mph - N/A   Clear
1:00 PM 64.4 °F 51.8 °F 64% 30.21 in - Variable 2.3 mph - N/A   Clear
1:30 PM 66.2 °F 55.4 °F 68% 30.21 in - Variable 1.2 mph - N/A   Clear
2:00 PM 66.2 °F 55.4 °F 68% 30.18 in - Variable 2.3 mph - N/A   Clear
2:30 PM 68.0 °F 55.4 °F 64% 30.18 in - Variable 2.3 mph - N/A   Clear
3:00 PM 69.8 °F 55.4 °F 60% 30.18 in - Variable 2.3 mph - N/A   Clear
3:30 PM 69.8 °F 55.4 °F 60% 30.18 in - Variable 1.2 mph - N/A   Clear
4:00 PM 71.6 °F 59.0 °F 64% 30.15 in - Variable 3.5 mph - N/A   Clear
4:30 PM 71.6 °F 55.4 °F 57% 30.15 in - Variable 2.3 mph - N/A   Clear
5:00 PM 73.4 °F 57.2 °F 57% 30.15 in - Variable 3.5 mph - N/A   Clear
5:30 PM 71.6 °F 57.2 °F 60% 30.15 in - NNW 6.9 mph - N/A   Clear
6:00 PM 73.4 °F 57.2 °F 57% 30.15 in 6.2 mi WNW 5.8 mph - N/A   Mostly Cloudy
6:30 PM 73.4 °F 57.2 °F 57% 30.15 in 6.2 mi NNW 4.6 mph - N/A   Mostly Cloudy
7:00 PM 71.6 °F 57.2 °F 60% 30.15 in 6.2 mi NNW 5.8 mph - N/A   Mostly Cloudy
7:30 PM 71.6 °F 57.2 °F 60% 30.15 in 6.2 mi North 4.6 mph - N/A   Mostly Cloudy
8:00 PM 69.8 °F 57.2 °F 64% 30.15 in 6.2 mi NNE 3.5 mph - N/A   Mostly Cloudy
8:30 PM 68.0 °F 59.0 °F 73% 30.15 in 6.2 mi NNE 3.5 mph - N/A   Mostly Cloudy
9:00 PM 66.2 °F 57.2 °F 73% 30.18 in 6.2 mi NE 3.5 mph - N/A   Mostly Cloudy
9:30 PM 66.2 °F 57.2 °F 73% 30.18 in 6.2 mi NNE 2.3 mph - N/A   Mostly Cloudy
10:00 PM 64.4 °F 57.2 °F 77% 30.18 in 6.2 mi NE 2.3 mph - N/A   Unknown
10:30 PM 64.4 °F 57.2 °F 77% 30.18 in 6.2 mi Calm Calm - N/A   Unknown
11:00 PM 60.8 °F 55.4 °F 82% 30.18 in 6.2 mi Calm Calm - N/A   Unknown
11:30 PM 60.8 °F 57.2 °F 88% 30.18 in 5.0 mi Calm Calm - N/A   Unknown